Orbital Elements at Epoch 2459200.5 (2020-Dec-17.0) TDB
Reference: JPL 19 (heliocentric ecliptic J2000)
Element | Value | Uncertainty (1-sigma) | Units |
e | .1771772076510474 | 4.507e-08 | |
a | 2.211091296904528 | 8.3701e-09 | au |
q | 1.819336315057451 | 9.9624e-08 | au |
i | 8.36797157722344 | 5.615e-06 | deg |
node | 5.47185572399099 | 3.3347e-05 | deg |
peri | 33.42490130429383 | 3.8138e-05 | deg |
M | 72.0883541052804 | 1.8948e-05 | deg |
tp | 2458960.024382379972 (2020-Apr-20.52438238) | 6.2388e-05 | TDB |
period | 1200.904409840993 3.29 | 6.8191e-06 1.867e-08 | d yr |
n | .2997740678191583 | 1.7022e-09 | deg/d |
Q | 2.602846278751605 | 9.8531e-09 | au |
|
| | Orbit Determination Parameters
Additional Information
|